Wind_Speed
34 33 31 30 30 30 30 29 28 25 21 18 15 13 14 15 15 16 19 21 18 16 19 21 22 25 26 22 16 9 10 14 17 18 18 18 19 20 24 26 26 25 25 25 26 25 24 22 22 22 22 22 22 22 23 24 24 24 23 24 25 26 27 27 27 27 27 28 27 26 27 27 27 27 26 26 26 26 26 26 25 25 24 24 25
36 36 36 34 33 31 29 28 27 26 23 19 16 14 14 15 16 18 20 19 17 16 18 20 21 23 24 24 21 13 8 10 15 18 20 20 20 21 23 25 26 26 26 26 27 26 24 23 23 22 22 22 21 21 22 23 24 23 23 24 25 26 26 26 25 25 25 25 24 24 25 25 24 24 24 24 24 24 23 23 23 23 24 25 26
31 34 37 36 34 31 28 27 27 27 25 21 18 16 16 17 18 20 21 20 18 17 19 20 21 23 23 23 23 18 10 8 11 16 20 22 23 22 23 25 26 27 27 28 28 27 25 24 23 22 22 21 21 21 22 23 24 24 24 25 25 25 25 24 23 22 21 21 21 21 22 22 22 21 21 20 20 20 21 21 22 23 24 26 28
31 34 35 35 34 31 28 27 28 28 26 23 20 19 20 20 21 22 24 24 22 21 23 24 23 23 23 23 24 21 14 8 8 12 18 22 24 25 25 26 26 27 29 29 28 26 24 23 23 22 21 21 21 21 22 23 24 24 24 24 24 24 24 23 21 20 18 16 16 17 18 19 19 18 18 18 19 20 21 21 23 25 27 29 30
33 34 33 32 31 31 31 29 29 29 28 26 24 23 23 22 22 24 26 26 27 25 24 25 24 23 24 23 24 23 18 11 8 9 14 19 23 25 25 26 27 28 29 29 27 25 23 23 22 22 21 21 21 21 22 24 24 24 24 23 23 22 22 21 19 17 16 14 14 17 19 19 19 18 18 19 20 22 23 24 26 28 30 31 32
32 33 32 32 31 30 31 31 30 31 31 30 29 27 26 25 25 26 26 28 29 27 24 24 23 22 23 23 23 24 22 16 11 9 10 14 18 21 24 25 26 28 29 28 27 25 23 23 22 22 22 22 21 21 22 23 23 23 23 22 21 20 20 20 18 17 16 15 15 18 20 21 21 20 21 21 23 24 26 27 29 31 32 33 34
30 29 30 32 32 30 30 32 33 34 33 33 33 32 30 29 28 28 27 29 31 28 23 21 21 20 21 22 22 23 23 20 15 10 9 11 14 18 21 23 24 26 27 26 25 24 23 23 22 22 22 22 21 21 21 22 23 22 22 20 20 19 19 19 19 18 17 17 18 19 21 22 22 23 23 24 25 27 28 30 31 32 33 33 35
25 24 26 31 34 34 33 33 34 35 35 35 36 35 33 32 31 29 27 28 30 28 23 21 22 22 21 21 21 23 24 22 19 14 10 10 12 15 18 21 23 25 25 24 23 23 23 23 22 22 22 22 21 20 21 22 22 21 20 19 19 19 20 20 20 19 19 20 20 22 23 24 24 25 25 26 28 30 31 32 33 33 33 33 34
23 23 27 31 34 35 36 36 36 36 36 36 36 36 35 34 32 29 28 29 31 31 28 25 25 26 23 21 22 24 24 22 21 17 12 10 12 14 17 19 21 23 23 22 22 22 22 22 21 21 21 21 21 20 20 21 21 21 20 19 19 20 21 22 21 21 22 22 22 24 25 26 26 28 29 29 30 32 33 33 33 33 33 34 37
31 34 36 37 35 34 35 37 38 38 38 38 37 37 37 36 34 32 31 31 31 31 30 28 27 26 25 23 23 24 24 22 20 19 15 12 12 14 16 18 19 20 21 20 20 21 21 21 21 21 21 20 20 19 20 20 21 21 21 21 21 21 22 23 23 23 24 24 25 26 27 28 29 31 32 32 32 33 34 34 34 35 36 37 39
47 51 52 50 46 42 41 39 38 37 38 40 40 39 39 39 38 37 34 32 31 29 28 27 28 28 27 26 26 25 24 23 21 20 18 15 14 15 16 17 19 19 20 20 20 20 21 21 21 21 21 20 19 19 20 21 21 22 22 23 23 24 24 25 25 26 27 27 28 29 30 31 32 33 33 34 34 34 34 35 36 37 38 39 40
55 57 57 55 52 50 46 43 41 39 38 39 40 41 40 41 41 40 37 36 36 34 32 31 32 33 31 30 30 28 26 25 24 22 20 18 16 16 17 18 19 20 20 20 20 20 21 21 21 21 21 20 20 20 20 21 21 22 23 24 25 26 27 27 28 29 29 30 32 32 32 32 32 33 34 35 35 35 35 37 39 39 40 41 42
54 56 56 54 52 51 48 45 43 42 42 41 42 44 46 45 45 44 43 43 43 43 42 41 40 40 38 35 33 32 30 27 26 25 22 20 19 18 19 20 21 21 21 20 20 20 21 22 21 22 22 22 22 21 21 21 22 23 24 25 26 27 28 29 30 30 31 32 33 34 33 33 34 35 36 37 37 38 39 41 42 42 41 41 42
55 55 55 53 51 50 48 45 42 41 41 41 42 44 46 46 46 46 46 46 47 49 50 48 46 45 44 40 38 37 34 31 29 28 26 24 22 21 21 22 23 23 22 21 21 21 22 23 23 23 24 24 24 23 23 23 23 24 25 26 26 27 29 30 30 31 32 33 34 35 34 35 36 36 37 39 40 41 43 44 44 43 42 42 43
53 53 52 51 49 48 47 44 40 37 37 37 38 38 39 40 43 45 45 44 43 43 46 47 45 44 45 44 42 40 38 35 33 31 30 28 27 24 23 23 25 26 25 24 23 23 23 24 25 26 25 25 25 25 25 25 25 26 27 28 28 28 29 31 31 31 32 33 34 35 35 36 36 36 38 40 42 43 44 44 43 43 42 43 45
49 49 49 49 48 47 46 42 38 35 35 35 33 32 32 34 39 42 41 39 38 38 39 40 42 46 50 51 48 45 42 40 38 35 32 30 30 28 26 24 25 27 28 28 28 27 26 26 27 27 26 26 27 27 27 27 27 28 28 29 30 30 32 33 32 33 34 34 34 34 35 36 37 37 38 41 43 44 44 44 43 43 44 46 47
46 47 48 48 48 47 45 42 38 37 38 38 36 34 35 36 38 39 36 33 33 35 38 42 48 55 59 56 52 49 46 43 42 40 36 33 31 30 28 26 28 31 33 33 33 32 31 30 28 28 28 29 29 27 26 26 27 27 28 29 30 31 33 34 34 35 36 36 36 36 37 37 38 38 40 43 44 45 46 44 43 45 47 48 50
45 45 46 46 45 45 44 42 39 38 39 41 43 44 47 48 48 48 48 46 44 45 49 54 59 61 61 58 54 52 48 46 44 43 41 38 33 30 28 30 34 38 38 37 37 36 34 31 30 30 32 33 31 28 27 28 28 28 28 29 30 32 35 35 35 36 38 38 38 38 38 38 38 39 41 42 43 44 45 45 45 47 49 50 51
40 40 41 42 42 41 41 40 40 40 40 41 44 47 50 51 51 52 54 58 58 57 58 60 60 60 59 58 56 54 50 48 47 46 45 43 39 35 34 34 37 40 42 42 41 38 34 32 31 33 34 33 32 31 31 31 30 30 29 29 31 33 33 34 35 37 38 39 39 38 38 39 39 40 41 41 42 44 45 48 50 52 53 53 54
37 37 37 38 39 38 37 36 37 39 40 42 44 47 50 52 53 53 54 57 60 60 59 59 58 57 56 55 55 54 52 49 48 48 48 47 45 43 42 42 42 43 44 45 44 42 38 35 34 34 33 32 32 33 33 32 31 30 30 32 35 36 34 33 36 38 39 41 42 41 41 43 43 44 44 44 45 46 47 50 53 55 56 56 55
36 36 37 38 39 40 39 39 39 38 39 40 41 44 46 49 50 51 52 54 57 59 58 57 56 56 55 55 53 52 51 50 49 50 50 50 49 48 48 49 49 48 47 46 46 45 43 41 39 37 35 35 34 33 32 31 29 28 31 36 39 39 37 37 39 40 41 42 44 44 45 46 46 46 47 47 48 48 49 51 53 55 57 57 55
35 36 38 39 41 43 45 47 47 46 43 42 42 42 42 43 44 45 46 48 50 53 54 53 53 54 56 58 56 52 50 49 49 50 51 52 52 52 53 53 53 53 51 49 47 47 46 45 44 42 40 39 37 35 33 31 30 30 34 40 42 39 38 40 42 43 44 45 46 47 48 49 48 47 48 49 50 51 52 53 53 55 56 56 55
36 37 38 40 41 44 46 49 51 52 50 49 48 47 46 46 45 45 44 44 46 48 50 52 53 53 53 56 58 57 55 53 51 50 51 52 52 54 56 57 57 55 54 52 51 49 47 47 46 45 44 43 41 38 35 34 36 38 38 40 40 39 41 43 43 44 46 47 49 49 49 49 50 49 50 51 51 52 53 53 54 55 56 55 54
37 38 40 41 42 44 46 48 50 52 53 54 54 53 53 52 51 50 49 47 46 45 46 48 50 52 53 54 57 59 60 60 59 56 54 54 54 55 56 59 60 58 56 55 55 53 52 51 50 48 47 47 46 43 39 39 42 43 41 40 39 40 45 48 46 45 46 48 50 49 48 49 50 51 50 51 52 52 53 53 53 54 55 55 55
33 35 37 39 41 43 45 47 49 50 52 55 57 57 57 57 56 55 54 52 51 49 48 46 46 48 51 54 58 60 63 65 67 66 63 60 59 58 58 59 61 61 59 58 58 58 57 56 55 54 52 51 50 49 46 46 46 45 43 41 41 42 46 50 50 48 48 48 49 49 50 50 50 50 50 50 50 51 51 52 52 53 55 56 55
26 27 29 31 33 36 40 43 46 48 50 52 55 57 58 59 60 58 57 56 55 54 53 51 50 48 48 51 54 59 63 66 69 70 70 68 66 64 62 62 62 63 63 63 62 62 60 60 60 59 58 56 54 53 52 53 53 51 48 45 45 45 47 50 52 50 48 48 48 49 50 50 49 50 50 49 48 48 48 50 52 53 52 52 53
22 23 24 26 28 30 32 34 37 39 41 44 47 50 53 56 58 59 58 58 57 56 56 55 54 53 52 51 51 53 58 63 68 71 73 74 73 71 69 67 66 65 66 67 68 67 64 62 61 61 61 60 58 57 56 57 58 58 56 54 53 52 52 54 55 52 48 47 48 48 49 51 52 51 50 49 48 47 47 49 48 48 48 48 52
17 19 20 21 23 26 28 29 31 32 34 36 38 41 44 48 51 53 55 56 56 55 55 54 54 54 54 53 53 53 54 57 62 68 72 74 75 75 75 73 72 70 68 69 71 72 70 67 65 64 63 63 63 62 61 61 61 62 61 60 60 59 59 59 60 57 54 53 54 53 51 51 52 51 51 51 49 47 48 48 46 47 51 53 56
14 17 18 18 19 20 21 22 24 27 29 32 33 35 37 40 43 46 49 51 52 52 52 52 52 52 52 52 53 53 53 54 57 61 67 71 73 75 75 75 74 74 73 72 72 75 76 75 72 69 68 67 68 67 67 67 66 66 66 65 65 64 64 64 64 63 62 61 61 60 58 57 56 55 55 53 48 46 50 50 48 52 58 60 62
14 15 15 16 17 17 17 17 18 19 21 24 26 28 31 33 36 39 41 44 46 48 49 49 50 50 50 51 52 52 53 53 54 56 60 65 69 72 75 75 74 75 76 76 76 77 78 79 78 76 74 73 73 73 73 73 73 73 72 71 70 69 68 68 68 68 67 66 66 66 66 66 64 63 62 57 51 51 56 55 54 56 59 61 65
13 12 12 14 17 17 16 16 17 19 20 22 23 24 25 27 30 33 35 38 40 43 45 47 48 48 49 50 51 52 52 53 53 53 55 58 62 67 71 74 75 75 77 78 80 80 81 81 82 82 82 82 81 80 79 79 79 79 79 79 78 76 75 75 74 74 73 73 73 72 72 71 71 70 69 66 62 62 64 62 62 65 66 68 73
23 22 21 21 19 19 18 17 17 19 22 23 24 24 24 24 25 27 29 32 35 38 40 42 44 46 48 49 50 51 52 52 53 54 54 55 57 60 64 68 72 75 77 78 81 83 85 86 86 87 88 90 90 88 86 84 83 82 83 84 84 84 84 84 83 81 80 79 79 79 78 78 77 76 75 75 75 76 77 77 77 79 81 83 86
29 29 29 27 26 25 26 24 21 20 21 22 23 24 25 25 26 26 26 28 30 32 35 38 40 42 45 47 48 50 51 52 53 54 55 56 56 57 59 61 64 68 71 74 77 81 84 87 89 91 93 94 95 94 92 90 89 89 88 88 88 88 89 90 90 88 87 85 84 84 84 84 84 83 82 81 82 84 86 87 88 89 91 92 93
34 34 33 32 31 32 33 32 28 25 24 24 24 25 26 27 27 27 28 28 28 28 29 32 35 38 40 42 43 45 47 48 50 52 54 55 57 58 58 59 60 61 64 66 69 72 76 79 82 85 87 89 90 91 91 91 92 93 93 93 92 92 93 94 94 94 92 91 90 89 90 90 90 89 89 88 89 90 91 93 93 94 95 96 97
36 37 36 35 35 36 36 36 36 34 32 30 29 29 30 30 30 29 30 30 29 28 28 29 30 33 36 38 40 42 43 44 46 48 50 52 54 56 58 59 60 61 62 62 64 65 67 69 72 74 76 78 80 82 84 86 87 89 90 90 90 91 93 95 96 97 97 96 94 94 94 95 96 95 94 94 95 96 97 97 98 98 99 99 99
34 36 37 38 39 39 39 39 39 40 39 37 34 33 34 34 34 34 34 34 32 31 29 28 28 29 31 33 35 38 40 41 43 44 46 48 50 52 54 56 58 59 61 62 63 64 64 65 66 67 68 70 71 73 75 77 79 81 83 84 84 85 87 89 92 95 96 97 97 97 97 98 99 100 99 98 98 99 99 100 100 100 99 99 98
35 36 37 40 42 44 44 43 42 42 42 41 39 37 37 37 38 40 41 41 39 37 35 33 31 32 33 34 35 35 37 38 39 41 43 44 46 47 49 50 52 53 55 57 58 60 62 63 64 64 64 65 66 67 68 70 71 73 75 77 78 80 81 83 85 87 89 91 92 93 93 93 93 95 96 97 97 97 96 96 96 95 94 93 92
41 41 41 42 44 45 46 46 46 47 46 44 42 41 41 40 41 43 44 45 46 47 47 44 42 42 42 41 38 37 36 37 38 39 41 42 43 44 44 45 47 48 50 51 52 54 56 58 60 61 61 62 63 63 64 65 66 67 69 70 71 73 75 76 78 79 81 82 84 85 85 86 86 87 88 89 89 90 90 89 89 88 87 86 85
45 46 45 46 47 48 47 47 47 48 49 48 47 46 45 44 44 45 45 46 48 50 51 50 49 50 51 49 45 41 39 38 39 40 41 42 42 42 43 44 44 45 46 48 49 50 51 53 55 56 57 58 59 60 60 61 61 62 64 65 66 67 67 69 70 71 73 74 75 76 77 78 79 79 80 80 81 81 81 81 81 80 79 78 77
48 49 48 48 49 50 49 48 48 49 50 52 52 52 50 49 48 47 48 49 50 50 51 51 51 52 53 53 51 48 45 42 41 41 42 43 43 44 44 45 45 45 45 46 46 47 48 49 51 52 53 54 55 56 57 57 58 58 59 60 61 61 62 62 63 64 65 66 68 69 70 71 71 72 73 73 74 74 74 73 73 73 72 72 71
50 51 50 50 50 51 50 48 49 50 51 53 54 55 54 53 52 51 51 52 53 54 55 55 54 54 54 55 55 53 51 48 46 45 45 46 46 46 46 47 47 47 46 45 44 44 44 45 47 48 49 50 51 52 53 54 54 55 55 56 56 57 57 57 58 59 59 60 61 62 63 64 65 65 66 66 67 67 66 66 66 66 66 65 64
48 50 51 51 52 53 52 50 49 50 52 53 54 55 56 56 55 55 56 57 58 59 60 59 58 57 56 56 55 55 55 54 52 52 52 52 51 50 50 50 49 48 47 46 44 43 42 42 43 44 45 46 47 48 50 51 51 52 52 52 53 53 53 54 54 54 54 55 56 56 57 57 57 58 58 59 59 59 59 60 59 59 59 58 57
47 48 50 51 52 53 54 53 51 51 52 53 55 56 58 59 60 61 61 62 63 64 65 65 64 62 60 58 57 56 56 57 57 57 58 57 56 55 55 54 52 51 48 46 44 42 42 42 41 42 42 43 44 45 47 48 49 49 50 50 50 50 50 51 51 51 50 50 50 50 51 51 51 51 52 52 52 52 52 53 53 52 52 51 51
50 50 51 52 53 54 55 56 55 55 56 57 57 58 60 62 63 64 65 65 65 66 67 68 67 66 64 62 61 59 59 59 60 60 60 60 59 58 58 58 57 55 52 49 46 43 42 41 41 41 41 42 43 44 45 46 46 47 47 48 48 47 47 48 48 48 47 46 46 46 46 46 46 46 47 47 47 47 47 47 47 47 47 47 47
54 54 54 54 54 55 56 58 59 60 61 62 62 62 63 64 65 67 68 68 67 67 68 69 68 67 66 65 65 64 63 62 62 62 62 62 61 60 60 59 59 58 56 54 51 47 44 43 42 42 42 42 42 43 44 45 45 46 46 46 46 45 45 45 45 45 45 44 43 43 44 44 43 43 44 44 44 44 44 44 45 45 45 46 46
60 60 59 58 57 57 58 59 61 63 65 66 67 68 68 68 68 69 70 70 70 70 70 70 70 69 67 66 67 68 67 66 65 64 64 64 63 62 61 60 59 59 58 56 54 52 49 47 45 43 42 42 43 43 44 44 44 45 45 45 45 44 44 44 44 44 44 44 43 42 43 43 43 43 43 44 44 44 45 45 45 45 45 45 46
65 65 64 64 63 62 62 63 64 66 67 69 70 72 72 72 72 72 73 73 73 73 73 73 73 72 70 68 68 69 69 69 68 67 66 65 64 63 61 60 59 59 58 57 56 55 53 50 47 44 43 42 42 43 44 44 45 45 45 45 45 45 45 46 46 45 45 46 45 44 44 45 45 45 46 46 47 46 46 45 45 45 45 44 44
69 70 69 69 69 69 69 69 70 71 72 73 74 75 76 77 77 77 77 76 76 76 75 75 75 74 73 71 69 69 68 68 68 67 66 65 64 63 62 61 60 60 60 59 57 56 54 52 49 47 45 43 43 43 43 43 44 45 45 45 45 45 46 46 47 47 47 48 48 48 47 47 48 48 48 48 48 47 46 45 45 44 44 44 43
73 74 75 75 75 76 76 75 75 76 76 76 76 76 77 78 79 79 79 79 78 77 76 76 75 75 74 72 70 69 67 67 66 66 66 66 66 65 64 63 62 62 61 60 58 56 54 52 50 49 48 47 46 44 43 42 42 42 43 43 44 45 45 46 46 46 47 48 49 49 49 49 49 49 49 49 48 47 46 45 45 44 44 44 44
76 77 78 79 79 80 80 79 78 77 77 77 76 76 76 76 76 76 76 76 76 75 74 73 73 73 72 71 69 68 67 65 65 64 65 65 65 65 65 64 63 63 62 60 58 56 55 53 52 51 51 50 49 47 46 45 43 42 42 42 42 43 43 44 45 45 46 46 47 48 49 49 48 48 49 49 48 48 48 47 46 46 46 45 45
78 79 80 81 82 82 82 81 80 79 78 78 77 76 75 75 74 74 73 72 72 71 70 70 69 68 68 67 67 66 65 64 64 63 63 64 64 65 65 65 64 63 61 61 59 58 57 57 56 55 53 52 51 50 48 47 46 46 45 44 43 42 41 41 41 42 44 45 47 48 48 48 48 47 47 48 48 49 49 48 48 47 47 47 47
Wind_Direction
266 264 261 258 257 260 264 271 277 277 275 281 292 305 311 314 319 321 326 336 344 351 356 358 359 1 3 2 354 325 272 247 234 229 225 220 216 212 209 211 215 221 226 229 230 229 230 233 236 238 239 240 240 239 240 241 239 236 234 234 235 237 241 245 247 248 248 248 248 250 252 252 253 257 260 264 267 269 271 273 275 278 280 282 284
268 264 262 258 255 256 260 264 271 271 268 272 282 292 295 299 306 309 314 326 338 347 355 358 356 356 359 1 359 347 307 265 244 233 228 223 219 215 212 214 218 224 227 229 229 229 230 234 237 239 241 241 241 239 238 240 240 239 238 239 239 241 244 247 248 246 243 243 242 243 247 250 254 258 261 263 266 268 269 272 274 276 279 281 284
261 258 257 255 251 251 253 257 263 266 265 267 272 277 281 286 293 297 301 310 319 327 335 342 347 349 351 355 357 353 332 290 257 240 231 227 224 220 218 217 219 223 225 226 227 228 229 232 236 239 240 240 238 237 237 239 241 241 241 242 243 245 247 247 246 243 240 239 240 242 247 253 257 259 261 263 266 269 271 273 275 278 281 284 286
251 254 253 253 249 245 245 249 256 260 262 265 269 273 276 281 286 289 294 300 305 309 314 320 329 337 342 347 353 354 344 316 280 252 236 229 226 225 225 222 222 223 225 225 224 224 226 230 234 238 239 237 235 235 238 242 244 245 244 244 245 245 246 244 242 241 240 239 242 249 255 258 259 258 259 263 267 271 274 276 279 282 285 286 286
253 252 250 252 248 239 237 244 252 257 259 263 270 275 275 277 282 284 287 294 301 306 309 310 316 327 335 340 347 351 348 334 308 277 251 237 230 228 228 227 225 224 225 223 221 222 226 230 234 236 236 235 234 236 240 245 247 248 246 245 243 242 241 241 239 239 237 236 242 252 257 259 259 260 261 266 269 273 275 278 281 284 284 285 286
256 253 250 250 245 236 234 241 249 255 258 261 268 273 273 273 275 279 284 291 297 302 307 307 311 321 331 335 339 345 347 341 324 298 270 251 240 234 231 229 227 225 224 223 222 224 228 232 233 234 234 234 234 237 242 246 247 247 246 244 243 240 237 236 237 237 235 235 240 248 254 257 260 263 265 268 272 276 278 281 282 283 284 286 287
259 260 257 249 243 239 238 241 247 252 257 261 265 269 271 270 271 277 284 289 291 294 298 301 303 314 325 329 331 336 341 341 331 310 282 259 246 239 235 230 226 223 221 221 223 226 229 232 233 232 233 235 236 238 243 245 246 246 245 244 241 238 235 233 234 237 238 239 242 247 253 257 260 264 267 272 277 280 281 283 284 285 286 288 288
262 264 258 253 252 253 249 243 245 249 253 258 262 264 267 267 268 274 279 281 283 284 286 288 291 299 312 319 320 324 330 335 332 318 291 264 245 236 231 226 221 218 219 221 225 229 231 232 233 234 235 237 239 240 243 244 245 245 245 243 240 238 237 237 237 240 243 245 245 249 254 259 263 268 273 277 280 282 283 284 285 287 288 289 290
258 256 253 260 263 262 256 247 245 246 249 254 258 259 262 263 265 269 270 272 274 276 278 279 279 287 297 302 304 310 316 322 327 320 297 268 248 236 228 223 220 219 221 226 229 233 234 235 236 238 239 241 243 244 245 245 246 246 246 246 244 242 241 241 242 244 248 251 253 255 260 265 271 276 279 281 282 283 284 285 286 287 288 288 289
241 244 254 266 268 266 264 259 252 249 250 252 254 256 260 261 263 265 267 270 271 272 274 273 271 277 287 290 290 297 304 308 316 317 302 271 246 237 231 227 226 227 229 232 234 236 237 238 239 241 244 245 246 247 248 248 248 249 249 249 249 248 247 247 248 250 253 256 259 263 267 271 275 278 282 284 284 284 284 285 286 287 288 288 290
238 246 256 265 265 266 270 269 263 258 255 255 255 257 259 260 261 262 264 267 269 267 268 267 266 271 280 283 284 286 292 297 302 307 302 281 253 238 233 231 232 235 237 237 237 237 237 238 239 242 245 246 246 246 247 249 250 252 253 253 253 253 253 254 255 257 259 262 265 269 272 274 276 280 283 285 285 284 285 286 286 287 288 290 290
246 251 258 263 263 264 268 270 268 264 261 258 257 258 259 261 261 260 260 264 267 268 268 267 266 270 274 279 282 279 280 285 289 293 295 287 267 249 239 237 236 237 239 239 238 238 238 239 239 241 243 244 245 245 246 247 250 252 254 257 258 259 259 261 261 262 264 266 269 271 272 274 276 279 282 284 284 285 286 287 287 288 290 292 293
253 257 261 264 265 265 268 270 269 267 266 263 261 260 262 263 262 260 259 260 263 267 269 269 270 270 269 274 278 276 273 275 278 281 283 282 276 261 248 243 241 241 242 241 241 241 241 242 242 242 244 244 245 246 246 247 249 251 254 256 259 261 262 263 264 265 266 267 268 269 271 273 276 278 280 282 283 284 286 286 288 291 292 293 293
256 260 263 266 267 268 269 269 269 269 268 266 265 264 264 262 262 261 260 261 262 264 265 268 271 268 264 269 275 272 269 268 269 272 274 273 273 269 259 251 248 248 247 244 243 243 243 244 244 243 244 244 245 246 247 248 251 253 256 257 258 260 262 263 264 264 265 265 266 268 271 274 276 278 279 279 281 283 283 284 287 290 291 292 292
259 263 265 267 268 268 269 268 266 265 264 263 263 265 265 265 263 262 263 265 266 265 264 267 268 263 262 269 273 268 266 265 264 265 268 268 268 268 266 261 257 256 255 253 249 247 246 247 247 246 245 246 248 248 248 250 252 255 258 259 260 262 264 266 266 266 266 267 268 270 272 273 275 278 279 278 278 279 280 283 286 286 287 289 290
263 265 266 267 267 267 267 265 259 252 249 250 253 256 259 263 263 263 266 268 269 267 266 264 259 257 262 269 269 264 261 261 260 260 261 263 264 265 266 269 268 266 262 258 255 251 248 247 248 250 250 250 249 248 248 250 251 253 257 259 262 264 266 268 269 270 270 270 271 272 272 273 275 275 273 273 275 276 279 282 283 281 283 288 292
264 265 266 265 264 263 262 260 254 244 237 234 234 234 235 238 244 248 250 254 257 257 256 254 253 257 263 266 263 260 258 256 256 255 254 255 259 262 264 269 272 271 268 263 259 255 251 249 250 252 253 252 250 249 250 251 252 254 256 260 263 266 267 268 269 270 272 273 273 273 273 274 275 274 273 274 276 278 280 280 278 278 283 288 290
263 264 263 261 259 258 257 256 252 246 239 234 231 230 230 231 234 237 236 236 240 243 246 250 254 259 262 262 260 258 256 254 255 254 251 250 250 252 255 258 260 261 262 263 261 257 254 253 254 255 256 256 255 255 256 257 259 260 261 263 266 268 269 270 271 273 275 275 275 275 276 278 278 278 279 279 280 281 281 279 278 281 285 287 288
263 264 262 259 257 256 256 255 253 250 247 243 237 234 236 237 239 241 239 238 241 245 248 251 254 257 259 259 259 258 256 255 255 255 253 249 245 242 244 249 252 253 255 258 259 258 255 254 253 255 257 258 258 259 259 261 265 269 272 273 273 272 272 274 276 277 278 278 278 278 278 279 279 279 280 280 279 279 278 278 280 284 285 286 288
268 268 266 263 259 256 256 257 257 256 254 251 245 241 241 243 245 248 248 246 246 247 249 252 254 256 257 257 256 255 255 255 255 255 254 251 247 243 242 244 248 252 255 257 258 258 256 254 253 254 255 257 258 258 259 259 262 270 277 278 276 275 274 274 275 277 279 280 281 281 281 282 282 282 283 282 280 278 277 278 282 285 285 287 290
275 276 274 269 265 261 259 259 260 259 257 256 253 250 249 251 253 255 255 253 250 249 250 252 254 256 257 257 255 252 252 252 253 254 254 252 250 247 245 246 249 251 254 256 258 259 257 256 256 255 254 254 254 254 257 258 259 266 272 273 272 273 274 272 270 272 275 276 278 281 284 286 286 285 285 285 285 283 280 281 283 284 286 287 288
280 280 278 275 270 265 262 261 262 262 260 258 257 257 258 259 259 260 261 260 257 254 252 253 254 255 255 255 255 253 250 250 251 252 252 252 251 249 247 247 250 252 254 254 255 257 256 255 256 256 256 256 255 254 255 256 256 258 263 267 271 273 275 273 270 270 272 276 278 281 282 281 282 283 284 285 284 283 281 282 283 284 285 286 286
278 279 280 278 276 271 266 264 263 263 263 263 262 262 263 264 265 266 265 264 262 260 257 255 255 255 253 253 253 253 252 252 252 252 251 251 252 251 248 247 248 251 253 254 254 255 255 254 253 254 256 257 257 257 257 257 257 256 256 261 266 270 275 276 273 270 272 275 277 278 278 278 278 280 281 282 282 281 281 282 283 284 285 285 287
278 278 279 279 279 278 274 270 267 265 265 265 265 266 267 268 269 269 269 268 266 265 262 260 257 255 253 252 251 252 253 253 253 253 252 252 252 253 251 248 247 248 251 253 254 254 255 254 253 253 254 255 255 255 253 254 257 258 258 259 261 264 268 271 270 268 271 273 273 274 276 277 278 278 279 281 281 280 281 282 282 282 283 284 286
280 280 280 279 278 278 277 276 274 272 271 269 268 268 269 269 270 270 270 269 268 267 266 265 263 260 258 255 252 251 251 252 252 252 252 252 252 253 253 251 248 247 247 250 252 253 254 254 254 255 255 255 254 253 250 249 250 253 254 256 258 260 262 265 267 267 269 271 273 275 276 276 276 276 277 278 279 279 281 281 280 279 280 282 283
288 285 283 281 279 278 277 277 276 275 274 273 271 269 268 268 268 269 269 269 268 267 266 265 265 265 263 261 258 255 253 252 252 251 250 250 250 252 253 253 251 248 246 246 248 250 251 252 253 255 255 255 255 254 252 251 250 249 249 250 254 257 259 262 265 266 267 270 272 274 274 273 274 274 274 275 277 279 282 281 280 279 282 283 281
300 297 293 288 283 280 278 278 278 278 276 274 272 270 268 266 266 266 267 267 267 267 266 266 265 265 265 264 264 261 258 255 253 251 250 249 249 249 250 252 253 251 248 246 245 245 246 247 249 251 253 255 255 254 254 253 253 251 249 248 250 252 256 259 261 262 265 267 268 269 269 270 272 272 272 274 276 279 285 286 283 281 281 279 276
318 316 310 300 290 282 278 277 277 277 276 275 274 272 270 267 266 265 264 265 265 265 265 266 266 265 265 265 265 265 263 260 256 253 251 250 249 248 248 248 250 252 251 248 245 244 244 245 246 247 250 252 253 254 254 255 255 255 253 251 249 249 251 254 258 261 263 265 266 267 268 270 270 269 270 275 278 282 289 289 281 275 273 270 271
328 326 324 318 308 299 294 289 283 279 278 276 275 274 273 271 269 267 266 265 264 264 264 264 264 264 265 265 265 265 265 264 261 258 254 252 250 249 248 247 248 249 250 250 248 246 245 246 246 247 249 251 252 252 252 253 254 255 255 255 253 252 251 252 253 256 259 262 264 265 265 266 266 266 269 274 277 282 284 278 269 266 267 267 271
317 319 317 315 314 314 317 317 310 304 299 295 289 284 280 277 275 272 270 268 266 265 264 263 263 264 264 265 265 265 265 265 264 262 259 256 254 252 250 249 248 248 248 248 249 247 246 246 247 248 251 253 254 254 254 253 252 253 254 254 255 254 254 254 254 255 256 257 259 260 261 262 263 264 266 268 270 276 276 270 265 266 266 266 270
275 276 270 277 288 299 309 317 320 320 320 320 319 313 303 293 287 281 277 274 271 268 267 266 266 266 266 266 266 266 266 266 267 266 264 262 260 257 255 254 252 251 249 248 248 248 247 247 248 249 252 255 257 258 257 255 253 252 252 253 254 254 255 256 257 257 257 256 256 257 258 259 261 262 263 263 264 267 267 264 262 263 263 264 268
248 250 248 252 262 272 282 295 308 315 318 320 324 326 324 317 309 299 290 283 278 273 271 270 268 268 267 267 267 267 268 268 268 268 268 267 265 263 261 259 257 256 254 252 250 249 249 249 250 251 254 257 259 260 259 257 255 254 254 254 254 254 255 256 257 257 257 257 257 257 258 258 260 261 261 261 261 262 264 265 265 265 267 270 273
254 257 258 260 262 264 270 278 287 299 308 313 318 323 326 326 325 320 312 303 294 286 280 275 272 270 269 268 268 268 268 268 268 268 269 269 268 267 265 264 262 261 259 258 256 255 254 253 254 255 256 258 260 261 260 259 258 257 258 257 256 255 255 256 257 258 258 258 257 258 258 259 260 261 261 260 260 261 264 266 269 270 273 275 277
261 264 266 268 270 272 275 278 280 283 289 296 304 313 319 321 322 324 324 321 317 309 299 289 282 277 274 272 271 270 270 269 269 269 269 269 269 268 267 267 265 264 263 262 261 261 260 260 260 260 260 261 261 261 261 260 260 260 260 260 260 258 257 257 257 258 259 259 259 259 259 260 262 263 263 262 262 263 265 267 268 271 273 275 276
267 268 269 270 273 275 277 279 280 280 281 284 291 298 304 308 310 313 316 319 319 318 313 306 297 290 285 281 278 276 275 274 273 273 272 271 271 270 269 268 267 266 265 265 264 264 264 264 264 264 264 265 265 264 264 263 263 262 262 262 262 261 260 259 259 259 259 260 260 260 261 262 263 264 264 264 264 265 267 268 270 271 273 274 276
269 269 270 272 274 276 278 279 280 279 280 283 287 289 292 295 298 301 305 308 310 313 314 313 310 307 303 297 291 286 283 281 280 279 278 277 276 275 274 273 271 270 268 267 266 265 265 265 266 266 266 266 267 266 266 266 265 265 264 264 263 263 262 261 260 260 261 261 262 263 263 263 263 264 265 266 266 267 268 269 271 272 273 274 276
268 268 269 271 274 276 278 279 279 278 278 279 280 282 285 288 289 291 294 296 298 303 307 309 310 312 313 311 308 302 296 292 290 289 287 285 283 282 280 279 278 276 274 272 271 269 268 267 267 266 266 267 267 267 267 267 267 266 265 265 265 264 264 263 263 263 263 263 264 265 265 265 265 265 265 266 268 268 269 270 271 272 274 275 276
264 267 268 270 273 276 278 278 278 277 276 275 276 278 281 284 286 287 289 291 292 294 298 300 302 304 306 308 310 311 307 302 299 296 294 292 290 288 286 285 283 281 280 279 277 275 273 271 269 268 267 267 267 267 267 268 268 268 268 267 267 266 266 266 266 266 266 265 266 266 266 267 267 267 267 267 268 269 270 271 272 273 274 276 277
260 262 265 268 272 275 277 277 277 276 275 273 274 275 277 280 282 284 286 287 288 289 291 294 296 298 300 302 305 308 309 309 306 302 300 298 297 295 293 290 288 286 285 283 282 280 278 275 273 270 269 268 267 267 268 268 268 268 268 269 269 269 269 269 268 268 268 268 268 268 268 268 268 269 269 269 270 271 272 273 274 275 275 276 277
261 260 261 264 269 273 275 275 274 275 275 273 272 274 275 277 278 279 280 282 284 285 287 290 293 295 296 298 299 301 304 306 307 306 305 304 303 302 300 297 294 292 289 288 286 284 282 279 276 273 271 269 269 268 268 268 268 268 268 268 269 269 269 269 269 269 269 269 269 269 269 269 270 270 271 271 272 272 273 274 274 275 276 277 278
265 263 261 262 264 269 273 273 271 271 273 274 274 274 275 275 276 277 278 280 282 283 285 287 290 291 293 294 294 295 296 298 300 302 304 306 306 306 305 304 302 300 296 293 290 287 285 282 279 276 273 271 270 269 269 269 269 268 268 269 269 269 269 269 268 269 269 269 269 269 270 270 271 271 272 272 273 273 274 274 275 276 276 277 278
268 267 265 263 263 264 268 271 271 270 270 271 273 274 275 276 277 278 279 280 281 281 282 283 285 287 289 290 290 290 291 292 293 295 298 301 303 304 305 306 307 306 304 301 296 292 288 285 282 280 277 274 272 271 270 270 270 270 269 269 269 269 269 269 269 269 269 270 271 271 271 271 272 272 272 273 273 274 274 275 275 276 277 277 278
271 271 269 267 266 265 266 268 271 271 270 270 270 271 272 274 276 278 280 282 283 283 283 283 283 284 285 286 286 286 286 287 289 291 293 296 298 299 301 302 304 306 307 307 304 300 294 289 285 283 281 278 275 273 272 271 270 270 270 270 270 269 270 270 270 270 270 271 272 272 272 273 273 274 274 274 274 275 275 275 276 276 276 276 277
274 275 273 270 268 267 267 268 270 271 272 272 271 271 271 272 274 275 277 279 281 282 283 283 283 283 284 284 284 284 283 284 285 287 289 291 293 295 296 298 299 301 304 305 306 306 303 297 291 286 282 280 278 276 274 272 271 271 270 270 270 270 270 270 271 271 271 271 272 273 274 274 274 275 275 275 275 275 276 276 276 276 276 276 276
275 278 277 274 271 269 268 269 271 271 272 273 273 273 272 272 273 274 276 277 278 279 280 280 281 281 282 283 283 282 282 282 283 284 285 287 288 290 292 294 295 296 299 301 302 304 306 305 301 294 287 282 279 277 275 274 273 272 271 271 271 271 271 271 272 273 273 273 273 273 274 274 275 275 275 275 275 276 277 277 277 277 276 276 276
277 279 280 279 277 274 271 270 271 272 273 274 274 274 274 273 274 275 276 277 277 277 277 277 278 279 280 281 281 281 281 281 281 281 282 283 284 286 288 289 290 292 294 296 298 299 301 304 305 302 296 290 283 279 277 275 274 273 272 271 271 270 271 271 272 272 273 273 273 272 273 274 274 274 274 274 275 277 278 278 278 277 277 277 277
279 281 282 281 281 279 277 275 273 273 273 274 275 275 275 275 275 276 277 278 278 278 277 277 277 278 279 279 279 279 279 279 279 279 279 279 280 282 283 284 286 287 289 291 293 295 297 299 301 302 300 297 293 287 283 279 277 275 274 273 271 271 270 270 270 270 271 271 271 271 271 272 273 273 274 275 276 277 277 278 277 276 276 276 276
281 282 283 283 283 283 282 280 279 277 277 277 277 277 277 277 277 277 278 279 279 279 278 277 277 277 278 279 279 278 278 278 277 277 276 276 276 277 278 280 281 283 285 287 289 290 292 295 297 297 297 298 297 295 291 286 282 280 278 276 275 274 273 272 272 272 271 272 272 271 271 271 272 272 273 274 275 275 275 275 275 274 274 274 274
283 283 283 284 284 284 284 283 282 281 280 280 279 279 278 278 278 278 279 279 279 279 278 277 277 277 278 278 277 277 277 276 275 274 274 274 274 274 275 276 278 280 282 284 285 286 288 289 291 291 292 293 294 295 294 291 288 284 282 279 277 276 275 274 274 273 273 273 273 273 272 272 272 272 273 273 273 273 273 272 272 272 272 272 271
283 283 283 283 283 283 283 283 283 282 281 280 280 280 280 279 279 279 279 279 279 278 277 276 276 276 277 277 276 275 274 274 273 272 271 272 273 273 274 275 276 278 280 281 281 282 283 284 285 286 287 288 290 291 292 291 290 288 286 283 280 278 277 276 276 275 274 274 274 274 274 273 273 273 273 273 273 272 272 271 270 270 270 269 269
282 282 282 282 282 282 283 283 283 283 282 281 281 281 281 281 280 280 280 279 279 278 276 275 274 274 274 274 274 273 272 272 271 270 270 270 270 271 273 274 275 276 277 277 278 279 280 281 281 282 282 283 285 286 287 287 286 287 287 286 285 283 282 282 281 280 278 276 275 275 275 275 275 275 274 274 274 273 273 272 271 270 269 269 268
Height
10956 10956 10957 10958 10959 10959 10961 10961 10962 10963 10963 10963 10963 10962 10962 10962 10962 10961 10960 10960 10958 10957 10955 10954 10952 10950 10948 10947 10945 10944 10944 10945 10946 10947 10947 10948 10949 10950 10951 10953 10955 10956 10958 10959 10961 10962 10964 10966 10967 10969 10970 10970 10971 10971 10971 10971 10971 10973 10974 10975 10976 10976 10976 10976 10977 10977 10977 10978 10978 10979 10978 10979 10979 10979 10979 10979 10979 10979 10979 10979 10978 10978 10977 10976 10975
10952 10951 10952 10953 10954 10955 10957 10958 10959 10960 10960 10960 10960 10960 10960 10960 10960 10959 10959 10959 10957 10956 10954 10953 10952 10951 10949 10947 10946 10944 10943 10943 10944 10945 10946 10946 10947 10948 10950 10951 10953 10954 10956 10957 10959 10961 10963 10964 10966 10967 10968 10969 10969 10969 10969 10968 10969 10970 10971 10972 10973 10973 10973 10974 10974 10974 10975 10975 10976 10976 10976 10976 10977 10977 10977 10977 10977 10976 10976 10976 10976 10975 10974 10973 10972
10947 10944 10944 10947 10949 10951 10953 10954 10956 10957 10957 10957 10958 10958 10958 10958 10957 10957 10957 10957 10956 10955 10954 10952 10951 10950 10949 10947 10946 10944 10943 10942 10942 10943 10944 10945 10946 10947 10948 10949 10950 10951 10953 10954 10956 10958 10960 10962 10963 10964 10965 10966 10967 10967 10966 10966 10966 10967 10968 10969 10970 10970 10971 10971 10971 10972 10972 10973 10974 10974 10974 10975 10975 10975 10975 10975 10974 10974 10974 10974 10973 10973 10972 10970 10969
10943 10939 10940 10942 10944 10946 10948 10950 10952 10953 10954 10954 10955 10956 10955 10955 10955 10955 10954 10954 10955 10954 10953 10952 10951 10949 10948 10947 10945 10944 10942 10941 10940 10940 10941 10942 10943 10944 10946 10947 10948 10949 10950 10952 10954 10956 10957 10959 10960 10961 10962 10963 10964 10964 10964 10963 10964 10964 10965 10966 10967 10968 10968 10968 10969 10970 10970 10971 10972 10972 10973 10973 10973 10973 10973 10973 10972 10972 10971 10971 10970 10969 10968 10967 10966
10939 10938 10938 10939 10940 10942 10944 10946 10948 10949 10950 10951 10952 10953 10953 10953 10953 10953 10952 10952 10952 10953 10952 10951 10950 10948 10947 10946 10944 10943 10942 10940 10939 10939 10939 10939 10940 10942 10943 10944 10946 10947 10948 10949 10951 10953 10955 10956 10957 10958 10959 10960 10961 10962 10961 10961 10961 10962 10962 10963 10964 10965 10966 10966 10967 10968 10968 10969 10969 10970 10971 10971 10971 10971 10971 10970 10970 10969 10969 10968 10967 10966 10965 10964 10962
10934 10935 10936 10935 10935 10938 10940 10942 10944 10945 10946 10948 10949 10950 10951 10951 10951 10951 10951 10951 10950 10950 10951 10950 10949 10947 10946 10945 10943 10942 10941 10940 10939 10938 10937 10938 10938 10940 10941 10942 10944 10945 10946 10948 10949 10951 10952 10953 10954 10955 10956 10957 10958 10959 10958 10958 10958 10959 10960 10961 10962 10963 10964 10964 10965 10965 10966 10967 10967 10968 10968 10969 10969 10968 10968 10968 10967 10966 10965 10964 10963 10962 10962 10961 10959
10929 10930 10931 10931 10932 10933 10935 10937 10939 10941 10943 10945 10946 10947 10948 10949 10949 10949 10950 10949 10948 10948 10949 10949 10948 10947 10945 10944 10942 10941 10940 10939 10938 10937 10936 10936 10936 10938 10939 10940 10942 10943 10944 10946 10947 10948 10949 10950 10951 10952 10953 10954 10955 10956 10956 10956 10956 10956 10957 10958 10959 10961 10961 10962 10962 10963 10964 10965 10965 10966 10966 10966 10966 10966 10966 10966 10965 10963 10962 10961 10959 10958 10958 10957 10955
10926 10926 10927 10927 10928 10929 10930 10932 10935 10937 10939 10941 10943 10944 10945 10946 10947 10948 10948 10948 10946 10946 10947 10947 10946 10945 10944 10943 10942 10941 10939 10938 10937 10936 10935 10935 10935 10936 10937 10938 10940 10941 10943 10944 10945 10946 10947 10948 10949 10949 10950 10951 10952 10953 10953 10953 10953 10954 10955 10956 10957 10958 10958 10959 10959 10960 10961 10962 10963 10963 10963 10963 10963 10963 10963 10963 10962 10960 10959 10958 10956 10955 10955 10954 10952
10925 10925 10924 10923 10923 10924 10926 10928 10930 10933 10935 10937 10938 10940 10942 10943 10944 10946 10946 10946 10945 10945 10944 10945 10944 10943 10942 10942 10941 10940 10939 10938 10937 10936 10935 10935 10934 10935 10936 10937 10938 10940 10941 10943 10944 10945 10945 10946 10947 10947 10948 10949 10949 10950 10951 10951 10951 10952 10953 10954 10955 10956 10956 10956 10957 10958 10958 10959 10960 10960 10960 10960 10960 10960 10959 10959 10958 10957 10955 10954 10953 10952 10951 10950 10948
10923 10921 10918 10918 10919 10921 10922 10924 10927 10929 10930 10932 10934 10936 10938 10939 10941 10942 10943 10943 10943 10943 10942 10942 10942 10941 10940 10940 10940 10939 10938 10937 10937 10936 10935 10935 10934 10934 10935 10936 10938 10939 10940 10941 10942 10943 10943 10944 10944 10945 10946 10947 10948 10948 10949 10949 10950 10950 10951 10952 10953 10953 10954 10954 10955 10956 10956 10956 10957 10957 10957 10957 10957 10956 10955 10955 10955 10954 10952 10951 10949 10948 10947 10946 10945
10917 10913 10912 10913 10915 10917 10919 10921 10924 10926 10927 10928 10930 10932 10934 10935 10937 10938 10939 10940 10940 10940 10940 10939 10939 10938 10938 10937 10937 10937 10937 10936 10936 10936 10935 10935 10934 10934 10934 10935 10937 10938 10939 10940 10940 10940 10941 10941 10942 10943 10943 10944 10946 10946 10947 10947 10948 10948 10949 10950 10950 10951 10952 10953 10953 10953 10954 10954 10954 10954 10954 10954 10953 10952 10952 10951 10951 10950 10949 10947 10946 10945 10943 10942 10940
10909 10908 10908 10908 10910 10913 10915 10917 10919 10922 10925 10926 10927 10929 10930 10931 10932 10934 10935 10936 10936 10936 10936 10936 10935 10935 10934 10934 10933 10934 10935 10935 10935 10935 10935 10935 10934 10934 10934 10934 10935 10936 10937 10937 10938 10938 10939 10939 10940 10940 10941 10942 10943 10944 10945 10946 10946 10947 10947 10948 10948 10949 10950 10950 10951 10951 10951 10951 10951 10951 10950 10950 10949 10949 10948 10947 10946 10946 10945 10944 10942 10941 10939 10937 10936
10904 10903 10903 10903 10905 10907 10910 10912 10914 10918 10921 10924 10925 10926 10926 10926 10927 10928 10930 10931 10931 10931 10931 10930 10930 10930 10930 10930 10930 10930 10932 10933 10933 10934 10934 10934 10934 10933 10933 10933 10934 10934 10935 10935 10936 10936 10937 10937 10938 10938 10939 10940 10940 10941 10943 10944 10944 10945 10945 10945 10946 10946 10947 10947 10948 10948 10948 10948 10947 10947 10947 10946 10946 10945 10944 10943 10942 10942 10941 10939 10937 10936 10935 10933 10930
10900 10899 10899 10899 10900 10902 10905 10908 10912 10915 10916 10918 10919 10920 10921 10921 10922 10923 10924 10925 10926 10927 10926 10926 10925 10924 10924 10925 10926 10927 10928 10930 10931 10931 10932 10932 10933 10932 10932 10932 10932 10933 10933 10933 10934 10934 10934 10934 10935 10935 10936 10936 10937 10938 10940 10941 10942 10942 10942 10942 10943 10943 10943 10943 10944 10944 10944 10944 10944 10943 10944 10943 10942 10941 10940 10939 10938 10937 10936 10934 10933 10931 10930 10927 10925
10896 10896 10896 10895 10896 10897 10899 10904 10911 10916 10914 10911 10912 10913 10914 10915 10915 10915 10917 10919 10920 10921 10920 10920 10919 10918 10918 10919 10922 10924 10925 10926 10927 10928 10929 10930 10930 10931 10931 10931 10931 10931 10931 10931 10931 10931 10931 10931 10931 10931 10932 10933 10933 10935 10936 10937 10938 10938 10938 10939 10939 10940 10940 10939 10940 10941 10940 10940 10940 10940 10940 10939 10938 10937 10935 10933 10933 10932 10931 10929 10929 10927 10925 10922 10920
10893 10892 10892 10891 10891 10892 10895 10899 10907 10914 10914 10912 10912 10912 10913 10912 10910 10910 10911 10913 10914 10914 10915 10915 10915 10913 10912 10915 10918 10920 10921 10922 10923 10924 10926 10927 10928 10928 10929 10929 10929 10928 10928 10928 10928 10928 10927 10927 10927 10927 10928 10928 10929 10930 10931 10933 10934 10935 10935 10935 10935 10936 10936 10935 10936 10936 10935 10935 10935 10935 10935 10934 10933 10933 10930 10928 10928 10927 10926 10925 10924 10922 10920 10917 10915
10888 10888 10888 10888 10887 10888 10890 10894 10899 10905 10908 10909 10910 10911 10911 10911 10908 10908 10909 10911 10912 10912 10912 10911 10910 10907 10907 10911 10913 10915 10917 10918 10919 10920 10922 10923 10925 10927 10928 10929 10927 10924 10923 10924 10923 10923 10923 10924 10924 10925 10924 10924 10924 10926 10928 10930 10930 10931 10931 10931 10931 10931 10930 10930 10931 10930 10929 10930 10930 10930 10929 10929 10929 10928 10925 10923 10923 10922 10921 10920 10919 10917 10915 10913 10910
10885 10885 10885 10885 10885 10885 10886 10889 10892 10896 10899 10901 10903 10904 10905 10905 10904 10904 10906 10907 10908 10907 10906 10904 10902 10902 10903 10905 10907 10909 10911 10912 10913 10914 10916 10919 10921 10924 10927 10927 10923 10919 10917 10918 10918 10919 10920 10922 10922 10922 10920 10920 10922 10924 10925 10926 10926 10926 10927 10927 10927 10926 10924 10925 10925 10925 10924 10924 10924 10925 10924 10924 10925 10923 10920 10919 10919 10917 10915 10914 10913 10911 10910 10908 10905
10882 10882 10882 10882 10882 10882 10883 10884 10886 10888 10890 10893 10895 10896 10897 10898 10899 10899 10900 10900 10900 10899 10898 10898 10898 10898 10898 10899 10900 10902 10904 10906 10907 10908 10910 10912 10916 10919 10920 10920 10916 10912 10911 10912 10913 10915 10917 10918 10918 10917 10916 10917 10919 10919 10920 10921 10921 10922 10922 10923 10922 10921 10921 10921 10921 10920 10919 10918 10918 10919 10919 10919 10920 10919 10916 10916 10915 10913 10910 10908 10906 10905 10904 10902 10900
10877 10877 10878 10878 10878 10878 10879 10880 10880 10882 10883 10884 10886 10888 10889 10891 10892 10892 10892 10892 10892 10892 10892 10892 10892 10892 10893 10893 10894 10895 10897 10899 10901 10901 10903 10905 10908 10911 10912 10912 10909 10907 10906 10907 10909 10911 10912 10913 10913 10913 10913 10913 10914 10914 10914 10916 10917 10918 10918 10917 10916 10916 10917 10918 10917 10915 10915 10913 10912 10913 10913 10913 10914 10914 10912 10911 10910 10908 10906 10903 10900 10898 10896 10896 10895
10871 10872 10873 10873 10874 10874 10874 10875 10875 10876 10877 10878 10879 10880 10882 10883 10883 10884 10884 10884 10884 10884 10885 10885 10885 10885 10886 10886 10887 10889 10890 10892 10894 10895 10896 10898 10901 10903 10905 10904 10903 10902 10902 10903 10904 10905 10907 10908 10908 10908 10908 10908 10909 10909 10910 10911 10913 10914 10913 10910 10908 10909 10911 10912 10912 10911 10910 10908 10907 10907 10907 10907 10907 10907 10906 10904 10903 10902 10900 10898 10895 10892 10890 10889 10888
10866 10867 10867 10868 10868 10869 10869 10869 10870 10870 10871 10871 10872 10873 10874 10874 10875 10875 10875 10876 10876 10877 10877 10878 10879 10879 10879 10879 10880 10882 10883 10885 10887 10889 10890 10892 10894 10896 10897 10897 10897 10897 10897 10898 10899 10900 10901 10902 10902 10902 10903 10903 10903 10905 10906 10906 10907 10907 10906 10903 10902 10904 10905 10905 10905 10905 10904 10904 10903 10902 10901 10901 10900 10900 10899 10898 10896 10895 10894 10892 10890 10887 10884 10883 10880
10861 10861 10861 10861 10861 10862 10862 10862 10863 10863 10864 10864 10864 10865 10866 10867 10867 10868 10868 10868 10869 10869 10870 10871 10871 10872 10872 10872 10873 10875 10876 10878 10880 10882 10884 10885 10886 10887 10888 10889 10890 10890 10891 10891 10892 10894 10895 10896 10896 10897 10896 10897 10898 10900 10901 10900 10897 10897 10897 10897 10898 10900 10900 10898 10898 10898 10898 10898 10898 10897 10896 10895 10895 10894 10893 10892 10891 10890 10888 10886 10884 10881 10877 10876 10874
10855 10855 10855 10854 10854 10853 10853 10853 10854 10856 10856 10856 10856 10857 10858 10859 10859 10860 10860 10861 10862 10862 10863 10863 10864 10865 10865 10866 10866 10867 10868 10870 10872 10874 10876 10877 10878 10879 10880 10881 10882 10884 10884 10885 10885 10887 10888 10888 10889 10890 10890 10890 10892 10894 10896 10893 10888 10888 10891 10894 10897 10897 10894 10890 10889 10891 10892 10892 10892 10891 10891 10890 10889 10888 10887 10886 10885 10884 10882 10879 10877 10874 10871 10869 10868
10849 10848 10848 10847 10847 10845 10844 10844 10845 10847 10847 10847 10848 10849 10850 10850 10850 10851 10852 10853 10854 10854 10855 10856 10856 10857 10858 10859 10859 10860 10860 10862 10863 10865 10867 10868 10869 10870 10872 10873 10874 10876 10877 10878 10878 10879 10880 10880 10881 10882 10883 10884 10885 10887 10888 10886 10883 10883 10886 10889 10891 10890 10886 10882 10882 10883 10884 10885 10885 10885 10885 10884 10883 10882 10881 10880 10879 10877 10876 10873 10871 10868 10865 10863 10861
10843 10842 10841 10840 10839 10838 10837 10836 10836 10837 10838 10838 10838 10839 10840 10840 10840 10842 10843 10844 10845 10846 10847 10848 10848 10849 10850 10850 10851 10851 10852 10853 10853 10855 10856 10858 10859 10861 10863 10864 10866 10868 10869 10871 10871 10871 10871 10872 10873 10874 10875 10876 10877 10878 10879 10878 10877 10878 10881 10883 10883 10882 10880 10877 10875 10876 10878 10878 10879 10879 10878 10878 10877 10877 10875 10874 10873 10872 10870 10868 10865 10862 10860 10857 10853
10837 10836 10834 10833 10832 10830 10829 10829 10829 10829 10829 10828 10827 10828 10829 10829 10830 10831 10833 10834 10835 10836 10837 10838 10839 10840 10841 10841 10842 10842 10842 10843 10844 10844 10845 10847 10849 10851 10853 10854 10856 10858 10860 10862 10863 10863 10863 10864 10864 10865 10866 10867 10868 10869 10870 10870 10870 10871 10873 10876 10876 10876 10874 10871 10868 10869 10872 10872 10872 10872 10872 10872 10872 10871 10870 10868 10867 10865 10863 10861 10859 10857 10853 10849 10845
10832 10830 10828 10826 10824 10822 10822 10822 10822 10821 10821 10820 10820 10819 10819 10819 10819 10821 10822 10823 10824 10825 10826 10827 10829 10830 10830 10831 10832 10833 10833 10833 10833 10833 10834 10836 10838 10840 10842 10844 10846 10848 10850 10851 10853 10854 10854 10855 10856 10857 10858 10859 10860 10861 10862 10862 10862 10862 10864 10866 10868 10868 10867 10863 10860 10862 10864 10865 10865 10866 10866 10865 10864 10864 10863 10862 10860 10859 10857 10855 10853 10849 10845 10842 10839
10826 10824 10822 10820 10817 10816 10815 10816 10815 10814 10813 10812 10812 10812 10812 10811 10811 10811 10812 10813 10814 10815 10816 10817 10818 10819 10820 10821 10822 10822 10823 10822 10822 10823 10823 10825 10826 10828 10831 10833 10835 10837 10839 10841 10842 10843 10844 10845 10846 10847 10849 10850 10851 10852 10853 10853 10853 10853 10854 10855 10857 10858 10858 10856 10855 10855 10855 10856 10857 10858 10858 10857 10856 10856 10856 10855 10854 10853 10852 10849 10845 10840 10836 10833 10831
10820 10819 10817 10815 10812 10811 10810 10810 10809 10808 10807 10805 10805 10805 10805 10804 10804 10804 10805 10805 10806 10807 10807 10808 10809 10810 10811 10811 10812 10812 10813 10813 10813 10813 10814 10814 10816 10817 10820 10822 10824 10826 10828 10829 10831 10832 10833 10834 10835 10836 10838 10839 10841 10843 10844 10844 10844 10844 10844 10845 10846 10847 10847 10847 10847 10847 10847 10848 10849 10849 10849 10849 10849 10849 10850 10849 10848 10847 10845 10842 10837 10832 10829 10826 10823
10811 10811 10810 10809 10807 10806 10806 10805 10805 10804 10802 10801 10800 10799 10799 10798 10798 10797 10798 10798 10799 10799 10799 10800 10801 10802 10802 10803 10803 10803 10804 10804 10804 10805 10805 10806 10807 10808 10809 10810 10812 10814 10816 10818 10819 10821 10822 10823 10824 10825 10826 10827 10829 10831 10832 10833 10834 10834 10834 10835 10836 10836 10837 10837 10837 10838 10839 10839 10839 10840 10841 10841 10841 10841 10841 10840 10839 10838 10836 10833 10829 10826 10823 10821 10818
10801 10802 10802 10802 10802 10802 10802 10802 10801 10800 10799 10798 10796 10795 10795 10794 10793 10792 10792 10792 10792 10792 10793 10793 10794 10794 10794 10794 10795 10795 10796 10796 10796 10796 10797 10797 10797 10798 10798 10799 10801 10802 10804 10806 10808 10809 10811 10811 10812 10813 10814 10815 10816 10818 10820 10822 10823 10824 10824 10824 10825 10825 10825 10826 10826 10827 10828 10829 10829 10829 10830 10830 10831 10831 10832 10831 10830 10828 10826 10823 10820 10818 10816 10813 10810
10799 10798 10798 10798 10799 10799 10799 10798 10798 10798 10797 10796 10794 10793 10792 10792 10791 10790 10789 10788 10787 10787 10787 10787 10787 10787 10786 10786 10787 10787 10787 10788 10788 10788 10788 10788 10788 10788 10788 10789 10790 10791 10793 10794 10796 10797 10798 10799 10800 10801 10801 10802 10803 10805 10807 10808 10810 10811 10812 10813 10813 10814 10814 10814 10814 10815 10816 10817 10818 10818 10818 10818 10818 10819 10820 10820 10819 10817 10815 10812 10810 10808 10806 10803 10800
10798 10797 10797 10797 10797 10797 10796 10796 10796 10795 10795 10795 10793 10791 10790 10790 10789 10787 10786 10785 10785 10784 10783 10782 10781 10780 10780 10780 10780 10779 10779 10779 10779 10779 10779 10779 10779 10779 10779 10779 10780 10780 10782 10783 10784 10785 10785 10786 10787 10787 10788 10788 10789 10790 10792 10794 10795 10797 10798 10799 10800 10801 10802 10802 10802 10802 10803 10804 10805 10806 10806 10806 10806 10806 10807 10807 10806 10805 10803 10801 10800 10798 10796 10793 10790
10796 10795 10795 10795 10794 10794 10794 10793 10792 10791 10791 10792 10791 10790 10789 10787 10786 10784 10783 10782 10782 10781 10779 10778 10777 10776 10775 10774 10774 10773 10773 10772 10772 10772 10771 10771 10770 10770 10770 10770 10770 10770 10771 10772 10772 10773 10773 10773 10774 10774 10775 10775 10775 10776 10777 10778 10780 10781 10782 10784 10785 10786 10787 10788 10789 10790 10790 10791 10792 10793 10793 10793 10793 10793 10794 10794 10793 10792 10791 10790 10788 10787 10785 10783 10780
10792 10791 10791 10790 10790 10790 10790 10790 10789 10787 10787 10786 10786 10786 10786 10784 10783 10781 10779 10778 10778 10777 10776 10775 10773 10772 10771 10770 10769 10768 10767 10767 10766 10766 10765 10764 10764 10763 10762 10761 10760 10760 10760 10761 10761 10762 10762 10763 10763 10763 10763 10763 10763 10763 10763 10764 10765 10766 10767 10769 10770 10771 10772 10774 10775 10776 10777 10778 10779 10780 10780 10780 10780 10780 10780 10780 10780 10779 10778 10777 10776 10775 10773 10771 10769
10788 10787 10786 10785 10785 10785 10785 10785 10784 10784 10783 10782 10781 10781 10781 10779 10778 10776 10775 10774 10773 10773 10772 10772 10770 10768 10767 10765 10764 10763 10763 10762 10761 10760 10759 10758 10757 10756 10755 10754 10753 10751 10751 10751 10751 10752 10752 10752 10752 10752 10752 10753 10752 10752 10752 10752 10753 10753 10754 10755 10756 10757 10758 10760 10761 10762 10763 10764 10765 10766 10766 10767 10767 10767 10767 10767 10766 10765 10765 10764 10763 10763 10761 10760 10758
10782 10781 10780 10780 10780 10780 10780 10780 10779 10778 10778 10777 10777 10776 10775 10774 10772 10770 10769 10768 10767 10767 10767 10768 10767 10765 10762 10761 10760 10759 10758 10757 10756 10755 10753 10752 10751 10750 10749 10747 10746 10744 10743 10742 10742 10742 10742 10742 10742 10742 10742 10742 10742 10742 10742 10742 10742 10742 10743 10743 10744 10745 10746 10747 10748 10749 10750 10751 10751 10752 10752 10753 10753 10753 10754 10754 10753 10753 10752 10752 10751 10751 10750 10748 10747
10776 10775 10775 10775 10774 10773 10773 10773 10773 10772 10772 10772 10771 10771 10770 10768 10766 10765 10763 10761 10761 10760 10760 10761 10762 10760 10757 10756 10755 10754 10753 10751 10750 10749 10747 10746 10745 10744 10743 10741 10739 10738 10736 10735 10734 10733 10733 10732 10732 10732 10732 10732 10732 10733 10733 10733 10733 10733 10733 10733 10734 10734 10735 10736 10737 10737 10738 10738 10739 10739 10739 10740 10740 10740 10741 10741 10741 10740 10740 10740 10739 10739 10738 10737 10736
10771 10769 10769 10768 10768 10767 10766 10766 10765 10765 10765 10765 10764 10765 10764 10763 10761 10759 10758 10756 10755 10754 10754 10755 10755 10754 10752 10751 10750 10749 10748 10746 10744 10743 10741 10740 10740 10738 10737 10735 10733 10732 10731 10729 10727 10726 10725 10723 10722 10722 10723 10723 10723 10724 10724 10725 10725 10725 10725 10725 10725 10726 10726 10727 10727 10727 10727 10727 10728 10728 10728 10728 10729 10729 10729 10729 10729 10729 10729 10728 10728 10727 10727 10726 10725
10764 10763 10763 10762 10761 10760 10759 10759 10758 10758 10758 10757 10757 10757 10757 10756 10755 10754 10752 10751 10749 10748 10747 10748 10748 10748 10747 10746 10745 10743 10742 10741 10739 10737 10736 10735 10734 10733 10731 10729 10727 10725 10724 10723 10722 10720 10718 10716 10714 10714 10714 10715 10715 10715 10715 10716 10716 10716 10717 10717 10717 10717 10717 10718 10718 10718 10718 10718 10718 10718 10718 10718 10719 10719 10719 10718 10718 10719 10718 10718 10717 10717 10716 10716 10715
10757 10756 10756 10755 10754 10753 10752 10752 10751 10751 10751 10751 10750 10750 10749 10749 10748 10747 10746 10745 10743 10741 10740 10741 10742 10741 10740 10740 10738 10737 10736 10735 10733 10732 10731 10729 10729 10728 10726 10723 10721 10719 10718 10717 10715 10714 10712 10710 10708 10707 10707 10707 10708 10707 10707 10708 10708 10708 10709 10709 10709 10709 10708 10708 10709 10709 10709 10709 10709 10709 10709 10710 10709 10709 10709 10709 10709 10709 10708 10708 10708 10707 10707 10706 10706
10750 10749 10749 10748 10748 10747 10746 10745 10744 10744 10744 10743 10743 10742 10742 10741 10741 10741 10739 10737 10735 10734 10733 10734 10735 10734 10733 10733 10732 10730 10729 10728 10727 10725 10724 10723 10722 10721 10720 10718 10715 10713 10712 10711 10709 10707 10706 10704 10702 10701 10700 10700 10700 10700 10700 10700 10701 10701 10701 10701 10701 10701 10700 10700 10700 10700 10701 10702 10701 10701 10701 10701 10701 10700 10700 10700 10700 10700 10700 10699 10699 10699 10699 10698 10697
10743 10742 10742 10741 10741 10740 10739 10738 10737 10736 10736 10735 10735 10735 10734 10734 10733 10732 10731 10729 10728 10727 10725 10725 10725 10726 10725 10724 10724 10722 10721 10721 10720 10719 10717 10716 10715 10714 10713 10711 10709 10707 10706 10705 10704 10702 10700 10698 10697 10696 10694 10693 10693 10693 10693 10694 10694 10694 10694 10694 10694 10694 10694 10693 10692 10692 10693 10694 10694 10693 10693 10693 10693 10693 10692 10692 10693 10692 10692 10692 10692 10691 10691 10690 10690
10735 10734 10733 10733 10733 10733 10732 10731 10730 10728 10727 10726 10726 10726 10726 10725 10724 10723 10722 10721 10720 10719 10717 10715 10715 10716 10717 10716 10714 10713 10713 10712 10711 10711 10710 10709 10708 10707 10706 10704 10702 10700 10699 10698 10698 10697 10695 10693 10691 10690 10689 10688 10687 10686 10686 10686 10686 10686 10687 10687 10687 10687 10687 10687 10686 10685 10685 10686 10687 10686 10685 10685 10686 10686 10685 10685 10685 10685 10685 10685 10685 10684 10684 10683 10682
10727 10726 10725 10724 10724 10724 10724 10723 10722 10720 10719 10717 10716 10715 10715 10715 10715 10714 10713 10712 10711 10710 10708 10706 10705 10706 10708 10708 10705 10704 10703 10703 10702 10702 10701 10700 10699 10699 10698 10696 10694 10693 10692 10691 10690 10689 10689 10687 10685 10683 10682 10681 10680 10680 10679 10679 10679 10679 10679 10680 10681 10681 10681 10680 10680 10679 10679 10679 10680 10680 10679 10678 10678 10678 10678 10678 10678 10678 10678 10678 10678 10677 10677 10676 10676
10719 10717 10716 10715 10714 10714 10714 10713 10713 10712 10711 10709 10707 10705 10704 10704 10704 10704 10703 10702 10701 10700 10699 10697 10695 10695 10697 10698 10697 10694 10693 10693 10693 10692 10692 10691 10691 10690 10689 10688 10687 10685 10684 10683 10682 10682 10681 10681 10679 10678 10676 10675 10674 10673 10672 10672 10672 10673 10673 10673 10673 10674 10674 10674 10673 10673 10673 10672 10672 10673 10673 10672 10671 10671 10671 10670 10670 10670 10670 10670 10670 10670 10670 10669 10669
10710 10708 10707 10706 10704 10704 10703 10703 10702 10701 10701 10700 10698 10696 10694 10693 10692 10691 10692 10691 10691 10690 10688 10687 10685 10684 10685 10686 10686 10685 10684 10683 10683 10682 10681 10681 10681 10681 10680 10679 10678 10676 10675 10675 10674 10674 10674 10673 10673 10672 10670 10670 10669 10667 10666 10665 10665 10665 10666 10666 10666 10666 10667 10666 10666 10666 10666 10665 10664 10665 10665 10665 10664 10664 10663 10663 10662 10662 10662 10662 10662 10662 10662 10662 10662
10700 10699 10697 10696 10695 10694 10693 10692 10691 10690 10689 10689 10687 10686 10684 10683 10681 10680 10679 10679 10679 10678 10678 10677 10675 10674 10673 10674 10674 10674 10674 10673 10673 10672 10671 10670 10670 10670 10670 10670 10669 10668 10667 10667 10666 10666 10666 10666 10665 10665 10664 10664 10663 10663 10661 10660 10660 10659 10659 10659 10659 10659 10659 10659 10659 10659 10659 10658 10657 10656 10657 10657 10657 10656 10656 10655 10655 10655 10655 10655 10654 10654 10654 10654 10654
10691 10690 10688 10687 10685 10684 10683 10682 10681 10679 10678 10677 10676 10674 10673 10672 10671 10670 10669 10667 10666 10666 10666 10666 10665 10664 10663 10662 10661 10662 10662 10662 10662 10662 10661 10659 10659 10659 10659 10659 10660 10659 10659 10658 10658 10657 10657 10657 10657 10657 10657 10656 10656 10656 10656 10655 10654 10654 10653 10653 10652 10652 10652 10652 10653 10653 10652 10652 10650 10649 10649 10649 10650 10649 10649 10648 10647 10647 10647 10647 10647 10647 10646 10646 10646
10682 10680 10679 10677 10676 10674 10672 10671 10670 10668 10666 10665 10664 10663 10661 10660 10659 10658 10658 10656 10655 10654 10653 10653 10653 10653 10653 10651 10650 10649 10649 10649 10650 10651 10651 10650 10649 10648 10648 10649 10650 10650 10650 10649 10648 10648 10648 10648 10648 10648 10649 10649 10648 10648 10648 10648 10648 10647 10646 10646 10645 10645 10645 10645 10645 10645 10645 10644 10643 10642 10641 10641 10642 10642 10642 10641 10640 10640 10639 10639 10639 10639 10638 10638 10639